AirNav   Pilot Hours Calculator
 
 912 users online  

S50 Auburn Municipal Airport
Auburn, Washington, USA

GOING TO AUBURN?


FAA INFORMATION EFFECTIVE 28 FEBRUARY 2019

Location

FAA Identifier: S50
Lat/Long: 47-19-39.7000N / 122-13-36.0000W
47-19.661667N / 122-13.600000W
47.3276944 / -122.2266667
(estimated)
Elevation: 63 ft. / 19.2 m (surveyed)
Variation: 18E (2005)
From city: 2 miles N of AUBURN, WA
Time zone: UTC -8 (UTC -7 during Daylight Saving Time)
Zip code: 98002

Airport Operations

Airport use: Open to the public
Activation date: 03/1970
Control tower: no
ARTCC: SEATTLE CENTER
FSS: SEATTLE FLIGHT SERVICE STATION
NOTAMs facility: SEA (NOTAM-D service available)
Attendance: MON-FRI 0800-1700
Wind indicator: lighted
Segmented circle: yes
Lights: ACTVT HIRL RY 16/34 & REIL RYS 16 & 34 - CTAF. VASI RYS 16 & 34 OPER CONTINUOUSLY.
Beacon: white-green (lighted land airport)
Operates sunset to sunrise.

Airport Communications

CTAF/UNICOM: 122.8
SEATTLE APPROACH: 123.85 [0530-0000]
SEATTLE DEPARTURE: 123.85 [0530-0000]
WX ASOS at SEA (8 nm NW): PHONE 206-214-2592
WX ASOS at RNT (10 nm N): 126.95 (425-255-6080)
WX ASOS at BFI (13 nm N): PHONE 206-658-6435
WX AWOS-3 at PLU (14 nm S): 128.575 (253-848-2748)
WX ASOS at TIW (15 nm W): 124.05 (253-858-6507)

Nearby radio navigation aids

VOR radial/distance  VOR name  Freq  Var
SEAr133/7.3SEATTLE VORTAC116.8019E
TCMr028/14.8MCCHORD VORTAC109.6015E
OLMr033/34.9OLYMPIA VORTAC113.4019E
PAEr157/35.6PAINE VOR/DME110.6020E

 
NDB name  Hdg/Dist  Freq  Var  ID
GRAYE039/18.721616EGRF --. .-. ..-.
LACOMAS019/23.432816ELAC .-.. .- -.-.
MASON COUNTY063/35.334819EMNC -- -. -.-.

Airport Services

Fuel available: 100LL
FUEL 24 HRS - CREDIT CARD SELF SERVICE.
Parking: hangars and tiedowns
Airframe service: MAJOR
Powerplant service: MAJOR
Bottled oxygen: LOW
Bulk oxygen: LOW

Runway Information

Runway 16/34

Dimensions: 3400 x 75 ft. / 1036 x 23 m
Surface: asphalt, in good condition
Weight bearing capacity: 
Single wheel: 12.5
Runway edge lights: high intensity
RUNWAY 16  RUNWAY 34
Latitude: 47-19.940475N47-19.381248N
Longitude: 122-13.602237W122-13.596288W
Elevation: 56.5 ft.62.9 ft.
Gradient: 0.1%0.1%
Traffic pattern: rightleft
Runway heading: 162 magnetic, 180 true342 magnetic, 360 true
Markings: basic, in good conditionbasic, in good condition
Visual slope indicator: 4-box VASI on right (4.50 degrees glide path)4-box VASI on left (4.00 degrees glide path)
Runway end identifier lights: yesyes
Touchdown point: yes, no lightsyes, no lights
Obstructions: 25 ft. bldg, lighted, 700 ft. from runway, 88 ft. right of centerline, 20:1 slope to clear
RWY 16 E-W HIGH VOLTAGE TSMN LINE, 80' AGL LCTD 1804' N OF RWY 16 THR AT 20:1.
18 ft. other, 442 ft. from runway, 13:1 slope to clear
RWY 34 CTLG OBS PARKING LOT LIGHTS.

Airport Ownership and Management from official FAA records

Ownership: Publicly-owned
Owner: CITY OF AUBURN
25 WEST MAIN STREET
AUBURN, WA 98001
Phone (253) 931-3010
Manager: TIM MENSONIDES
2143 E ST. NE, SUITE #1
AUBURN, WA 98002
Phone (253) 333-6821

Airport Operational Statistics

Aircraft based on the field: 314
Single engine airplanes: 282
Multi engine airplanes: 19
Helicopters: 11
Gliders airplanes: 2
    
Aircraft operations: avg 450/day *
60% local general aviation
36% transient general aviation
4% air taxi
<1% military
* for 12-month period ending 31 December 2016

Additional Remarks

ULTRALIGHTS PROHIBITED.
PLAN APCHS AND DEPS TO AVOID EXTREMELY NOISE SENSITIVE RESIDENTIAL AREA E OF THE ARPT.
FOR CD CTC SEA APCH AT 206-214-4723.

Instrument Procedures

NOTE: All procedures below are presented as PDF files. If you need a reader for these files, you should download the free Adobe Reader.

NOT FOR NAVIGATION. Please procure official charts for flight.
FAA instrument procedures published for use from 28 February 2019 at 0901Z to 28 March 2019 at 0900Z.

 
IAPs - Instrument Approach Procedures
RNAV (GPS)-A   download (224KB)
 
BLAKO ONE (OBSTACLE) (RNAV)   download (147KB)
NOTE: Special Take-Off Minimums/Departure Procedures apply   download (339KB)

Other nearby airports with instrument procedures:

KSEA - Seattle-Tacoma International Airport (8 nm NW)
KRNT - Renton Municipal Airport (10 nm N)
KBFI - Boeing Field/King County International Airport (13 nm N)
KPLU - Pierce County Airport - Thun Field (14 nm S)
KTIW - Tacoma Narrows Airport (15 nm W)
KTCM - McChord Field Airport (Joint Base Lewis-McChord) (15 nm SW)
 
Loc | Ops | Rwys | IFR | FBO | Links
Com | Nav | Svcs | Stats | Notes
Area around S50 (Auburn Municipal Airport)
 
Road maps at: MapQuest Bing Google
 
Aerial photo
WARNING: Photo may not be current or correct
Aerial photo of S50 (Auburn Municipal Airport)
Photo by Bruce Shull
Photo taken 02-Jun-2017
looking north.

Do you have a better or more recent aerial photo of Auburn Municipal Airport that you would like to share? If so, please send us your photo.

 
Sectional chart

 
Airport diagram
CAUTION: Diagram may not be current
Diagram of S50 (Auburn Municipal Airport)
 
Airport distance calculator
Flying to Auburn Municipal Airport? Find the distance to fly.

From to S50

Sunrise and sunset
Times for 23-Mar-2019
 Local
(UTC-7)
 Zulu
(UTC)
Morning civil twilight06:3613:36
Sunrise07:0714:07
Sunset19:2402:24
Evening civil twilight19:5502:55

Current date and time
Zulu (UTC)  23-Mar-2019 19:32:32
Local (UTC-7)  23-Mar-2019 12:32:32
 
METAR
KSEA 
8nm NW 
231853Z 27005KT 10SM SCT027 BKN040 OVC170 12/06 A3019 RMK AO2 SLP229 T01220056
KRNT 
10nm N 
231853Z 34004KT 10SM SCT045 SCT055 13/06 A3019 RMK AO2 SLP227 T01330056
KPLU 
14nm S 
231915Z AUTO 00000KT 10SM BKN028 OVC034 12/07 A3019 RMK AO2
KBFI 
14nm N 
231853Z 35005KT 10SM FEW025 BKN036 BKN048 13/06 A3019 RMK AO2 SLP223 T01280056
KTIW 
15nm W 
231853Z VRB03KT 10SM SCT016 BKN025 BKN029 12/07 A3020 RMK AO2 SLP227 T01170072
KTCM 
16nm SW 
231858Z AUTO 23003KT 10SM BKN047 BKN055 12/09 A3019 RMK AO2 SLP228 T01180085 FZRANO $
TAF
KSEA 
8nm NW 
231720Z 2318/2424 22006KT P6SM FEW050 BKN120 BKN200 FM232100 29005KT P6SM SCT060 BKN120 BKN200 FM240400 33005KT P6SM SCT060 BKN080 FM241300 20004KT P6SM BKN015 OVC030 FM241800 20005KT P6SM BKN030
KBFI 
14nm N 
231720Z 2318/2418 22006KT P6SM FEW050 BKN120 BKN200 FM232100 29005KT P6SM SCT060 BKN120 BKN200 FM240400 33005KT P6SM SCT060 BKN080 FM241300 20004KT P6SM BKN020 OVC030
KTCM 
16nm SW 
231358Z 2313/2419 22009KT 6000 BR SCT015 OVC065 610654 QNH3010INS TEMPO 2313/2318 3200 BR BECMG 2317/2318 VRB06KT 9999 NSW BKN040 BKN120 QNH3005INS BECMG 2401/2402 VRB06KT 9999 SCT030 BKN100 QNH3015INS BECMG 2408/2409 VRB06KT 9999 BKN015 610405 QNH3015INS BECMG 2412/2413 VRB06KT 9000 -RA BKN010 630403 QNH3012INS TX10/2400Z TN03/2314Z
NOTAMs
Click for the latest NOTAMs
NOTAMs are issued by the DoD/FAA and will open in a separate window not controlled by AirNav.

 

 
 

FBO, Fuel Providers, and Aircraft Ground Support

  
 Business Name 
 
 Contact 
 
 Services / Description 
 
Fuel Prices
 
Comments
  
Auburn Airport Administration 253-333-6821
360-358-2565
[web site]
[email]
Airport management, Aviation fuel, Aircraft parking (ramp or tiedown), Hangar leasing / sales, Pilot school (FAR Part 141), Flight training, ...

More info about Auburn Airport Administration
EPIC
100LL
SS $4.99 
 Updated 13-Mar-2019
 
   write
SS=Self service
Update Fuel Prices
 

Would you like to see your business listed on this page?

 If your business provides an interesting product or service to pilots, flight crews, aircraft, or users of the Auburn Municipal Airport, you should consider listing it here.  To start the listing process, click on the button below
 
Add a business
 

Other Pages about Auburn Municipal Airport

auburnmunicipalairport.com
 
Update a link
 
Copyright © AirNav, LLC. All rights reserved. Privacy Policy  Contact